[[{"header":{"parameterUnit":"m.s-1","parameterCategory":2,"la1":30.2991,"la2":30.254,"lo1":-89.0895,"lo2":-89.0444,"dy":0.0017,"dx":0.0017,"nx":28,"ny":28,"refTime":"2023-11-12T03:00:00:Z","depth":"0","parameterNumber":2,"parameterNumberName":"U-component_of_CURRENTS"},"data":[0,0,0,0,0,0,0,0,0,0,0,0,0,0,0,0,0,0,0,0,0,0,0,0,0,0,0,0,0,0,0,0,0,0,0,0,0,0,0,0,0,0,0,0,0,0,0,0,0,0,0,0,0,0,0,0,0,0,0.188,0.188,0,0.1912,0.1913,0.1913,0.1919,0.1919,0.1919,0.1919,0.1926,0.1926,0.1926,0,0,0,0,0,0,0,0,0,0,0,0,0,0.1818,0.1819,0.188,0.188,0.1881,0.1912,0.1913,0.1913,0.1919,0.1919,0.1919,0.1919,0.1926,0.1926,0.1926,0,0,0,0,0,0,0,0,0,0,0,0,0,0.1845,0.1819,0.1879,0.1889,0.1891,0.1912,0.1913,0.1913,0.1919,0.1919,0.1919,0.1919,0.1926,0.1926,0.1926,0.193,0,0,0.1927,0.1928,0,0,0,0,0,0,0,0,0.1843,0.1847,0.1887,0.1889,0.1891,0.1914,0.1894,0.1918,0.1919,0.1906,0.1919,0.1919,0.1921,0.1922,0.1925,0.193,0.193,0.1927,0.1928,0.1928,0.1928,0,0,0,0,0,0,0,0.1842,0.1845,0.189,0.1888,0.189,0.1891,0.1895,0.1898,0.1911,0.1907,0.1908,0.1916,0.1921,0.1925,0.1925,0.193,0.1927,0.1928,0.1928,0.1928,0.1967,0.1968,0,0,0,0,0,0,0.1843,0.1844,0.1889,0.1891,0.1869,0.1893,0.1896,0.1904,0.1911,0.1913,0.1916,0.1916,0.1924,0.1925,0.1925,0.1957,0.1928,0.1928,0.1928,0.1966,0.1967,0.1968,0,0,0,0,0,0,0.1842,0.1847,0.1888,0.187,0.1876,0.1894,0.1903,0.1905,0.1912,0.1919,0.192,0.1921,0.1924,0.1925,0.1937,0.1956,0.1928,0.1929,0.1965,0.1966,0.1967,0.2002,0,0,0,0,0,0,0.184,0.1846,0.1851,0.187,0.1877,0.1908,0.1903,0.1906,0.1918,0.1918,0.1924,0.1924,0.1924,0.1937,0.1937,0.1956,0.1929,0.1964,0.1966,0.1967,0.2,0.2004,0.2008,0,0,0,0,0,0.1837,0.1845,0.1851,0.1856,0.1883,0.1909,0.1912,0.1923,0.1918,0.1927,0.193,0.1924,0.1947,0.1937,0.1938,0.1957,0.1963,0.1965,0.1967,0.1998,0.2004,0.2008,0,0,0,0,0,0,0.1818,0.1848,0.1854,0.1869,0.1891,0.1911,0.192,0.1925,0.1934,0.1933,0.1932,0.1933,0.1954,0.1949,0.1938,0.1974,0.1955,0.1957,0.1979,0.1984,0.1988,0.1995,0.1929,0,0,0,0,0,0.1818,0.1833,0.186,0.1873,0.1885,0.1902,0.1912,0.1921,0.1934,0.1937,0.1941,0.1948,0.1962,0.1966,0.1976,0.199,0.2002,0.2004,0.2008,0.2012,0.2019,0.2048,0.2055,0.1974,0.1974,0.1974,0,0,0.1812,0.1832,0.1839,0.187,0.1886,0.1909,0.1907,0.1928,0.1946,0.1936,0.1956,0.1963,0.1969,0.1992,0.2,0.1989,0.2044,0.2014,0.2017,0.2022,0.205,0.2058,0.2066,0.1975,0.1975,0.1975,0,0,0.1815,0.1829,0.1846,0.1868,0.1899,0.1914,0.1921,0.1945,0.1956,0.1975,0.1978,0.1996,0.2007,0.2023,0.2031,0.2062,0.2067,0.2064,0.2089,0.2117,0.2125,0.2131,0.2169,0.2178,0.2064,0.2064,0.2064,0,0.1806,0.1833,0.1853,0.1879,0.1899,0.1917,0.194,0.1957,0.198,0.1994,0.1986,0.2024,0.2025,0.2064,0.2076,0.2072,0.2091,0.2069,0.2123,0.213,0.2136,0.2173,0.2183,0.2066,0.2066,0.2066,0.2065,0,0.1826,0.1848,0.1861,0.19,0.1923,0.1946,0.1977,0.1998,0.2008,0.2024,0.2061,0.207,0.2094,0.2099,0.2096,0.2143,0.2145,0.2127,0.2111,0.2146,0.2183,0.2193,0.2069,0.2068,0.2067,0.2067,0,0,0.18,0.1861,0.1865,0.1889,0.1936,0.1958,0.1995,0.2035,0.2064,0.2082,0.2119,0.2143,0.215,0.2159,0.2164,0.2185,0.2243,0.2175,0.2176,0.2214,0.232,0.2358,0.2372,0.2235,0.2236,0.2237,0.2334,0,0.1808,0.1856,0.1886,0.1928,0.1956,0.1991,0.2026,0.2064,0.2096,0.2136,0.2155,0.219,0.2173,0.2193,0.2213,0.224,0.2268,0.222,0.2279,0.2281,0.2312,0.2384,0.2355,0.2442,0.2343,0.2345,0.2346,0,0.1813,0.185,0.1891,0.1952,0.1967,0.1993,0.2058,0.2093,0.2154,0.2183,0.2223,0.2241,0.2291,0.2261,0.233,0.2302,0.2316,0.2328,0.2332,0.2362,0.2338,0.2388,0.2463,0.2432,0.2361,0.2359,0.2358,0,0.1788,0.185,0.1882,0.1903,0.1974,0.1998,0.2035,0.2101,0.2145,0.2217,0.226,0.231,0.2351,0.2373,0.2412,0.2374,0.2489,0.2435,0.2484,0.2487,0.2472,0.2471,0.2524,0.248,0.248,0.248,0.248,0,0.1783,0.1809,0.1871,0.1891,0.193,0.1986,0.2038,0.2087,0.217,0.2227,0.2279,0.2346,0.2381,0.2449,0.2453,0.2528,0.2528,0.2517,0.2524,0.2485,0.2485,0.2463,0.2438,0.2483,0.2483,0.2482,0.2481,0,0.1746,0.179,0.1828,0.1898,0.1918,0.1943,0.2032,0.2078,0.2165,0.2245,0.2274,0.2395,0.2499,0.2545,0.261,0.2601,0.2603,0.2666,0.2631,0.2633,0.2626,0.2604,0.257,0.2474,0.2729,0.2731,0.2732,0,0.173,0.1748,0.1813,0.1835,0.1863,0.1915,0.1954,0.2054,0.2116,0.2274,0.2317,0.2459,0.2557,0.2703,0.274,0.2797,0.2686,0.2774,0.2688,0.2656,0.2636,0.2507,0.2416,0.2683,0.2684,0.2684,0.2685,0,0.1696,0.1717,0.175,0.1794,0.1831,0.1876,0.1947,0.1997,0.2121,0.221,0.2351,0.2448,0.2641,0.2727,0.2833,0.2843,0.268,0.2791,0.276,0.2624,0.2484,0.2385,0.2594,0.2691,0.2691,0.269,0.269,0.269,0.1659,0.167,0.1713,0.1747,0.1788,0.1826,0.1844,0.1942,0.203,0.2156,0.2301,0.2441,0.2652,0.2822,0.2821,0.2846,0.2748,0.2771,0.2755,0.2633,0.2514,0.2757,0.2857,0.2858,0.2858,0.2858,0.2858,0,0.1608,0.1635,0.1668,0.1702,0.1717,0.1762,0.183,0.1848,0.192,0.21,0.222,0.2471,0.2617,0.276,0.2902,0.283,0.2643,0.2755,0.2556,0.2468,0.271,0.2683,0.2748,0.2748,0.2749,0.2749,0.2749,0.2749,0.1585,0.1594,0.1615,0.1617,0.1643,0.1637,0.1657,0.1701,0.1819,0.1991,0.2164,0.2328,0.2668,0.2942,0.2965,0.2871,0.26,0.2536,0.2447,0.2644,0.2642,0.264,0.2608,0.2657,0.2657,0.2101,0.2098,0.2095]},{"header":{"parameterUnit":"m.s-1","parameterCategory":2,"la1":30.2991,"la2":30.254,"lo1":-89.0895,"lo2":-89.0444,"dy":0.0017,"dx":0.0017,"nx":28,"ny":28,"refTime":"2023-11-12T03:00:00:Z","depth":"0","parameterNumber":3,"parameterNumberName":"V-component_of_CURRENTS"},"data":[0,0,0,0,0,0,0,0,0,0,0,0,0,0,0,0,0,0,0,0,0,0,0,0,0,0,0,0,0,0,0,0,0,0,0,0,0,0,0,0,0,0,0,0,0,0,0,0,0,0,0,0,0,0,0,0,0,0,-0.0364,-0.0364,0,-0.0415,-0.0416,-0.0416,-0.0453,-0.0453,-0.0453,-0.0453,-0.0538,-0.054,-0.0542,0,0,0,0,0,0,0,0,0,0,0,0,0,-0.0335,-0.0335,-0.0364,-0.0364,-0.0365,-0.0415,-0.0416,-0.0416,-0.0453,-0.0453,-0.0453,-0.0454,-0.0538,-0.054,-0.0543,0,0,0,0,0,0,0,0,0,0,0,0,0,-0.0363,-0.0335,-0.0364,-0.0389,-0.0392,-0.0415,-0.0416,-0.0417,-0.0453,-0.0453,-0.0453,-0.0454,-0.0537,-0.054,-0.0543,-0.0554,0,0,-0.0552,-0.0554,0,0,0,0,0,0,0,0,-0.0361,-0.0364,-0.0385,-0.0387,-0.039,-0.0427,-0.0437,-0.0464,-0.0453,-0.043,-0.0453,-0.0454,-0.0504,-0.051,-0.0519,-0.0558,-0.0562,-0.0553,-0.0554,-0.0556,-0.0557,0,0,0,0,0,0,0,-0.0359,-0.0362,-0.0385,-0.0385,-0.0389,-0.041,-0.0414,-0.0442,-0.0465,-0.0432,-0.0435,-0.0439,-0.0506,-0.0516,-0.0521,-0.0563,-0.0552,-0.0555,-0.0557,-0.0558,-0.0619,-0.0619,0,0,0,0,0,0,-0.035,-0.036,-0.0383,-0.0386,-0.0376,-0.041,-0.0415,-0.0416,-0.0464,-0.0472,-0.0439,-0.0441,-0.051,-0.0517,-0.0524,-0.0538,-0.0556,-0.0558,-0.056,-0.0619,-0.0619,-0.0618,0,0,0,0,0,0,-0.0349,-0.0351,-0.0381,-0.0374,-0.038,-0.041,-0.0411,-0.0416,-0.0427,-0.0469,-0.0477,-0.0443,-0.0511,-0.052,-0.0548,-0.0542,-0.056,-0.0563,-0.0619,-0.0619,-0.0619,-0.0568,0,0,0,0,0,0,-0.0347,-0.035,-0.0346,-0.0373,-0.038,-0.039,-0.041,-0.0417,-0.0429,-0.0432,-0.0476,-0.0484,-0.0512,-0.0543,-0.0551,-0.0547,-0.0565,-0.0619,-0.0619,-0.0619,-0.057,-0.0566,-0.0563,0,0,0,0,0,-0.0346,-0.0336,-0.0346,-0.0348,-0.0373,-0.039,-0.0395,-0.0418,-0.0428,-0.043,-0.0461,-0.0483,-0.0546,-0.0546,-0.0555,-0.0551,-0.062,-0.0619,-0.0619,-0.0572,-0.0567,-0.0563,0,0,0,0,0,0,-0.0317,-0.0339,-0.0351,-0.0346,-0.0365,-0.0395,-0.0397,-0.0414,-0.0439,-0.0441,-0.0483,-0.0493,-0.0517,-0.054,-0.0538,-0.0567,-0.0585,-0.0586,-0.0546,-0.0542,-0.0539,-0.0523,-0.0568,0,0,0,0,0,-0.0309,-0.031,-0.0335,-0.0332,-0.0338,-0.0367,-0.0376,-0.0392,-0.0418,-0.0429,-0.046,-0.0492,-0.0522,-0.0536,-0.0566,-0.0581,-0.0606,-0.0584,-0.058,-0.0577,-0.057,-0.0606,-0.0605,-0.0617,-0.0617,-0.0617,0,0,-0.0298,-0.0309,-0.031,-0.0326,-0.0342,-0.0345,-0.0373,-0.0382,-0.0386,-0.0434,-0.0449,-0.0484,-0.0524,-0.0543,-0.0555,-0.0561,-0.0586,-0.0576,-0.0573,-0.0568,-0.0605,-0.0604,-0.0603,-0.0617,-0.0617,-0.0617,0,0,-0.0272,-0.0283,-0.0276,-0.0288,-0.0307,-0.0325,-0.0325,-0.0353,-0.0367,-0.0386,-0.0423,-0.0452,-0.0493,-0.0521,-0.0541,-0.0535,-0.0569,-0.0542,-0.0508,-0.0543,-0.0542,-0.0542,-0.0568,-0.057,-0.0536,-0.0536,-0.0536,0,-0.0257,-0.0252,-0.0276,-0.0272,-0.0277,-0.0312,-0.0305,-0.0323,-0.0358,-0.0367,-0.0383,-0.0446,-0.0482,-0.0508,-0.0505,-0.0526,-0.0548,-0.0521,-0.0537,-0.0538,-0.0538,-0.0565,-0.0568,-0.0534,-0.0534,-0.0534,-0.0534,0,-0.0229,-0.0226,-0.0221,-0.0228,-0.0237,-0.0236,-0.0263,-0.0274,-0.0295,-0.0318,-0.0349,-0.0399,-0.0435,-0.0451,-0.0477,-0.0496,-0.051,-0.0532,-0.0546,-0.0534,-0.0563,-0.0567,-0.053,-0.0531,-0.0532,-0.0532,0,0,-0.0189,-0.0199,-0.0197,-0.0192,-0.0213,-0.0214,-0.022,-0.0237,-0.0238,-0.0277,-0.0286,-0.034,-0.0369,-0.0393,-0.0432,-0.046,-0.0485,-0.0489,-0.0492,-0.051,-0.0554,-0.0554,-0.0559,-0.0509,-0.0509,-0.051,-0.0571,0,-0.016,-0.0141,-0.0156,-0.0137,-0.013,-0.0159,-0.0161,-0.0181,-0.0207,-0.0224,-0.0278,-0.0304,-0.0347,-0.0362,-0.0398,-0.0467,-0.0494,-0.0466,-0.0567,-0.057,-0.0568,-0.0564,-0.055,-0.0603,-0.0576,-0.0577,-0.0577,0,-0.0126,-0.0118,-0.0095,-0.0091,-0.0089,-0.0084,-0.0091,-0.0099,-0.0136,-0.0157,-0.0195,-0.0238,-0.0289,-0.0324,-0.0429,-0.0408,-0.0471,-0.0523,-0.0528,-0.0547,-0.0578,-0.0613,-0.0612,-0.0775,-0.0584,-0.0584,-0.0583,0,-0.0084,-0.0073,-0.0051,-0.005,-0.0053,-0.0046,-0.0052,-0.0077,-0.007,-0.0117,-0.0116,-0.0193,-0.0223,-0.0316,-0.0421,-0.0427,-0.0532,-0.0559,-0.0618,-0.0619,-0.0636,-0.0638,-0.0801,-0.0626,-0.0626,-0.0626,-0.0626,0,-0.0045,-0.0025,-0.0028,-0.0014,0.0016,-0.0005,0.0019,-0.0,-0.0012,0.0009,-0.0077,-0.0071,-0.022,-0.0294,-0.0402,-0.0518,-0.0522,-0.0608,-0.0634,-0.0618,-0.0617,-0.0783,-0.088,-0.0628,-0.0628,-0.0627,-0.0627,0,-0.0001,-0.0005,0.0026,0.0032,0.0039,0.0059,0.0077,0.0097,0.007,0.0095,0.0089,0.0017,-0.0078,-0.0225,-0.0377,-0.0483,-0.07,-0.0643,-0.0607,-0.0628,-0.083,-0.0923,-0.1127,-0.1204,-0.072,-0.072,-0.072,0,0.0024,0.0043,0.0067,0.0093,0.01,0.0125,0.015,0.0137,0.0169,0.0164,0.0193,0.0111,0.0087,-0.0147,-0.0359,-0.0553,-0.071,-0.0677,-0.0687,-0.0839,-0.0962,-0.1046,-0.1103,-0.0694,-0.0695,-0.0695,-0.0695,0,0.0074,0.0081,0.0108,0.0158,0.0192,0.0233,0.027,0.0313,0.0314,0.0346,0.0386,0.0371,0.0151,-0.0035,-0.0323,-0.0471,-0.0807,-0.0682,-0.0858,-0.0969,-0.1054,-0.114,-0.0656,-0.0695,-0.0695,-0.0695,-0.0695,-0.0695,0.0116,0.0144,0.018,0.023,0.0275,0.0343,0.0391,0.0453,0.0526,0.0597,0.0559,0.0576,0.0262,-0.0118,-0.0362,-0.0802,-0.0814,-0.0918,-0.1021,-0.1093,-0.1167,-0.0674,-0.073,-0.073,-0.073,-0.073,-0.073,0,0.0171,0.0199,0.0251,0.0313,0.0377,0.0385,0.0478,0.0541,0.0655,0.0734,0.0782,0.0653,0.0265,-0.0154,-0.0741,-0.1069,-0.1215,-0.1263,-0.1393,-0.1435,-0.101,-0.1006,-0.1101,-0.1101,-0.11,-0.11,-0.11,-0.11,0.0202,0.026,0.0283,0.0389,0.0438,0.0531,0.0592,0.07,0.0784,0.0893,0.0926,0.0908,0.0581,-0.0497,-0.1275,-0.1459,-0.1717,-0.1767,-0.1905,-0.1627,-0.1603,-0.158,-0.16,-0.1817,-0.1818,-0.2281,-0.2286,-0.2289]}],[{"header":{"parameterUnit":"m.s-1","parameterCategory":2,"la1":30.2991,"la2":30.254,"lo1":-89.0895,"lo2":-89.0444,"dy":0.0017,"dx":0.0017,"nx":28,"ny":28,"refTime":"2023-11-12T03:00:00:Z","depth":"2","parameterNumber":2,"parameterNumberName":"U-component_of_CURRENTS"},"data":[0,0,0,0,0,0,0,0,0,0,0,0,0,0,0,0,0,0,0,0,0,0,0,0,0,0,0,0,0,0,0,0,0,0,0,0,0,0,0,0,0,0,0,0,0,0,0,0,0,0,0,0,0,0,0,0,0,0,0.1878,0.1879,0,0.191,0.191,0.1911,0.1918,0.1918,0.1918,0.1918,0.1931,0.1931,0.1931,0,0,0,0,0,0,0,0,0,0,0,0,0,0.1821,0.1822,0.1878,0.1879,0.188,0.191,0.1911,0.1911,0.1918,0.1918,0.1918,0.1918,0.1931,0.1931,0.1931,0,0,0,0,0,0,0,0,0,0,0,0,0,0.1846,0.1822,0.1878,0.1889,0.189,0.191,0.1911,0.1911,0.1918,0.1918,0.1918,0.1918,0.1931,0.1931,0.1932,0.1935,0,0,0.1933,0.1933,0,0,0,0,0,0,0,0,0.1845,0.1848,0.1887,0.1888,0.189,0.1912,0.1895,0.1919,0.1918,0.1905,0.1918,0.1918,0.1924,0.1925,0.1928,0.1935,0.1936,0.1933,0.1933,0.1934,0.1934,0,0,0,0,0,0,0,0.1843,0.1847,0.1889,0.1887,0.1889,0.1891,0.1894,0.1899,0.1912,0.1906,0.1908,0.1915,0.1925,0.1928,0.1929,0.1936,0.1933,0.1934,0.1934,0.1934,0.1978,0.1979,0,0,0,0,0,0,0.1844,0.1845,0.1888,0.189,0.1869,0.1892,0.1896,0.1903,0.1913,0.1915,0.1915,0.1915,0.1927,0.1928,0.1929,0.1964,0.1934,0.1934,0.1934,0.1978,0.1979,0.198,0,0,0,0,0,0,0.1843,0.1848,0.1886,0.187,0.1875,0.1893,0.1901,0.1904,0.1912,0.192,0.1921,0.1922,0.1927,0.1928,0.1943,0.1964,0.1934,0.1935,0.1977,0.1978,0.1979,0.2015,0,0,0,0,0,0,0.1841,0.1847,0.1852,0.187,0.1876,0.1906,0.1902,0.1905,0.1918,0.1918,0.1926,0.1927,0.1927,0.1943,0.1944,0.1964,0.1935,0.1975,0.1977,0.1979,0.2013,0.2017,0.2021,0,0,0,0,0,0.1839,0.1847,0.1852,0.1858,0.1884,0.1907,0.191,0.1921,0.1918,0.1927,0.1932,0.1927,0.1954,0.1944,0.1945,0.1966,0.1975,0.1977,0.1979,0.2011,0.2017,0.2021,0,0,0,0,0,0,0.1822,0.1849,0.1856,0.1871,0.1891,0.1909,0.1919,0.1924,0.1935,0.1935,0.1935,0.1937,0.196,0.1956,0.1945,0.1984,0.1965,0.1967,0.1989,0.1994,0.1998,0.2004,0.1936,0,0,0,0,0,0.1823,0.1837,0.1862,0.1875,0.1887,0.1903,0.1913,0.1922,0.1935,0.194,0.1945,0.1954,0.1969,0.1975,0.1985,0.2002,0.2013,0.2018,0.2022,0.2026,0.2032,0.206,0.2068,0.1986,0.1986,0.1986,0,0,0.1818,0.1837,0.1843,0.1873,0.1889,0.191,0.1909,0.193,0.1948,0.1939,0.1961,0.1969,0.1977,0.2002,0.2011,0.2001,0.2057,0.2028,0.2031,0.2036,0.2063,0.2071,0.2078,0.1987,0.1987,0.1987,0,0,0.1822,0.1836,0.1852,0.1873,0.1904,0.1917,0.1925,0.1948,0.1959,0.1981,0.1985,0.2004,0.2018,0.2035,0.2043,0.2076,0.208,0.208,0.2106,0.2133,0.214,0.2146,0.2182,0.2191,0.208,0.208,0.2081,0,0.1815,0.1841,0.186,0.1884,0.1904,0.1922,0.1944,0.1961,0.1985,0.2001,0.1993,0.2033,0.2036,0.2076,0.2089,0.2087,0.2105,0.2085,0.2139,0.2145,0.2151,0.2186,0.2196,0.2082,0.2082,0.2082,0.2082,0,0.1834,0.1856,0.1869,0.1906,0.1929,0.1952,0.1982,0.2004,0.2016,0.2032,0.2071,0.2081,0.2107,0.2112,0.2111,0.2158,0.216,0.2143,0.2126,0.2162,0.2197,0.2206,0.2085,0.2085,0.2084,0.2083,0,0,0.1811,0.187,0.1874,0.1898,0.1943,0.1964,0.2002,0.2042,0.2073,0.2092,0.2131,0.2156,0.2164,0.2174,0.218,0.22,0.2258,0.2191,0.2192,0.2227,0.2332,0.2347,0.2359,0.225,0.2252,0.2253,0.2345,0,0.1819,0.1866,0.1894,0.1937,0.1964,0.1999,0.2034,0.2073,0.2106,0.2148,0.2167,0.2205,0.2187,0.2209,0.2228,0.2256,0.2282,0.2236,0.2292,0.2294,0.2303,0.237,0.2191,0.2259,0.2354,0.2355,0.2356,0,0.1825,0.186,0.1901,0.1962,0.1977,0.2003,0.2069,0.2105,0.2168,0.2197,0.2238,0.2257,0.2308,0.2277,0.2344,0.2318,0.233,0.2341,0.2344,0.2352,0.2326,0.2236,0.2272,0.2372,0.2371,0.2369,0.2368,0,0.18,0.1861,0.1894,0.1914,0.1984,0.201,0.2047,0.2114,0.2159,0.2233,0.2277,0.2327,0.2369,0.2389,0.2425,0.2389,0.2497,0.2446,0.2472,0.2473,0.2329,0.2316,0.2488,0.2488,0.2487,0.2487,0.2487,0,0.1796,0.1822,0.1884,0.1903,0.1944,0.1999,0.2053,0.2103,0.2187,0.2245,0.2298,0.2362,0.24,0.2464,0.2465,0.2524,0.2535,0.2501,0.2506,0.2339,0.2326,0.242,0.2411,0.2491,0.249,0.2489,0.2489,0,0.176,0.1803,0.1841,0.1911,0.1932,0.1959,0.2048,0.2095,0.2182,0.2264,0.2294,0.2412,0.2505,0.255,0.2609,0.2593,0.2629,0.2639,0.2456,0.2438,0.2571,0.2563,0.2671,0.2672,0.2673,0.2674,0.2675,0,0.1745,0.1762,0.1827,0.1849,0.1878,0.1931,0.1971,0.2072,0.2133,0.2291,0.2333,0.2466,0.2544,0.267,0.2681,0.2718,0.2705,0.2555,0.2448,0.26,0.2594,0.2583,0.2573,0.2269,0.2267,0.2265,0.2263,0,0.1712,0.1733,0.1765,0.1809,0.1847,0.1892,0.1964,0.2011,0.2136,0.2219,0.2348,0.2428,0.2582,0.2566,0.2642,0.2621,0.2535,0.2517,0.2728,0.2263,0.2233,0.2223,0.2224,0.2245,0.2246,0.2248,0.2249,0.225,0.1676,0.1687,0.1729,0.1763,0.1805,0.184,0.1858,0.1945,0.2026,0.2125,0.2265,0.2322,0.2403,0.244,0.2402,0.2375,0.2526,0.2384,0.2385,0.2389,0.2339,0.2314,0.2332,0.2334,0.2336,0.2338,0.2339,0,0.1626,0.1652,0.1685,0.1719,0.1731,0.1779,0.1843,0.1843,0.1894,0.2015,0.2101,0.2003,0.2043,0.2108,0.2064,0.2099,0.2016,0.1994,0.1852,0.1876,0.1896,0.1813,0.167,0.1668,0.1665,0.1662,0,0,0.1603,0.1611,0.163,0.163,0.1656,0.1645,0.1662,0.1672,0.1735,0.1748,0.1776,0.1946,0.207,0.1826,0.1834,0.1742,0.1776,0.1678,0.2229,0.2089,0.2104,0.2158,0.2065,0,0,0,0,0]},{"header":{"parameterUnit":"m.s-1","parameterCategory":2,"la1":30.2991,"la2":30.254,"lo1":-89.0895,"lo2":-89.0444,"dy":0.0017,"dx":0.0017,"nx":28,"ny":28,"refTime":"2023-11-12T03:00:00:Z","depth":"2","parameterNumber":3,"parameterNumberName":"V-component_of_CURRENTS"},"data":[0,0,0,0,0,0,0,0,0,0,0,0,0,0,0,0,0,0,0,0,0,0,0,0,0,0,0,0,0,0,0,0,0,0,0,0,0,0,0,0,0,0,0,0,0,0,0,0,0,0,0,0,0,0,0,0,0,0,-0.0217,-0.0218,0,-0.0267,-0.0268,-0.0268,-0.0307,-0.0307,-0.0308,-0.0308,-0.0393,-0.0395,-0.0396,0,0,0,0,0,0,0,0,0,0,0,0,0,-0.0187,-0.0187,-0.0217,-0.0218,-0.0218,-0.0267,-0.0268,-0.0268,-0.0307,-0.0307,-0.0308,-0.0308,-0.0392,-0.0394,-0.0397,0,0,0,0,0,0,0,0,0,0,0,0,0,-0.0215,-0.0187,-0.0217,-0.0243,-0.0246,-0.0267,-0.0268,-0.0268,-0.0307,-0.0307,-0.0308,-0.0308,-0.0391,-0.0394,-0.0397,-0.0405,0,0,-0.0406,-0.0407,0,0,0,0,0,0,0,0,-0.0213,-0.0216,-0.0239,-0.0241,-0.0245,-0.0281,-0.0288,-0.0316,-0.0307,-0.0284,-0.0308,-0.0309,-0.0358,-0.0364,-0.0372,-0.0408,-0.0412,-0.0406,-0.0408,-0.0409,-0.041,0,0,0,0,0,0,0,-0.0211,-0.0214,-0.0237,-0.0239,-0.0243,-0.0263,-0.0267,-0.0293,-0.0318,-0.0286,-0.0289,-0.0294,-0.036,-0.0369,-0.0374,-0.0413,-0.0406,-0.0409,-0.041,-0.0411,-0.047,-0.047,0,0,0,0,0,0,-0.0202,-0.0212,-0.0236,-0.0239,-0.0229,-0.0263,-0.0268,-0.0269,-0.0318,-0.0325,-0.0293,-0.0295,-0.0364,-0.0371,-0.0377,-0.0393,-0.0409,-0.0412,-0.0413,-0.047,-0.047,-0.047,0,0,0,0,0,0,-0.0201,-0.0203,-0.0234,-0.0226,-0.0232,-0.0263,-0.0264,-0.027,-0.0282,-0.0323,-0.0331,-0.03,-0.0364,-0.0373,-0.0401,-0.0397,-0.0413,-0.0416,-0.0471,-0.047,-0.047,-0.0423,0,0,0,0,0,0,-0.02,-0.0203,-0.0201,-0.0226,-0.0232,-0.0243,-0.0264,-0.027,-0.0284,-0.0288,-0.0331,-0.0339,-0.0365,-0.0396,-0.0404,-0.0401,-0.0418,-0.0471,-0.047,-0.047,-0.0425,-0.0421,-0.0418,0,0,0,0,0,-0.0198,-0.019,-0.02,-0.0203,-0.0228,-0.0242,-0.0247,-0.0272,-0.0284,-0.0286,-0.0317,-0.0338,-0.0399,-0.0399,-0.0407,-0.0405,-0.0471,-0.0471,-0.047,-0.0426,-0.0422,-0.0418,0,0,0,0,0,0,-0.0173,-0.0194,-0.0206,-0.0203,-0.0221,-0.0249,-0.0251,-0.0269,-0.0294,-0.0298,-0.0338,-0.0348,-0.0372,-0.0394,-0.0392,-0.0421,-0.0438,-0.0439,-0.0401,-0.0398,-0.0394,-0.0379,-0.042,0,0,0,0,0,-0.0167,-0.0168,-0.0191,-0.019,-0.0196,-0.0224,-0.0234,-0.0249,-0.0274,-0.0286,-0.0317,-0.0349,-0.0376,-0.0391,-0.0419,-0.0434,-0.0457,-0.0438,-0.0434,-0.0431,-0.0425,-0.0458,-0.0457,-0.0469,-0.0469,-0.0469,0,0,-0.0157,-0.0168,-0.0169,-0.0185,-0.02,-0.0202,-0.0231,-0.024,-0.0244,-0.0291,-0.0307,-0.0341,-0.0379,-0.0397,-0.0409,-0.0415,-0.044,-0.0431,-0.0428,-0.0423,-0.0458,-0.0457,-0.0456,-0.0468,-0.0468,-0.0468,0,0,-0.0134,-0.0147,-0.0139,-0.0151,-0.0169,-0.0185,-0.0187,-0.0214,-0.0228,-0.0247,-0.0282,-0.0312,-0.0352,-0.0378,-0.0396,-0.039,-0.0424,-0.04,-0.0367,-0.04,-0.0399,-0.0399,-0.0424,-0.0427,-0.0394,-0.0394,-0.0394,0,-0.0121,-0.0116,-0.0139,-0.0135,-0.0139,-0.0174,-0.0166,-0.0184,-0.0218,-0.0227,-0.0245,-0.0307,-0.0342,-0.0364,-0.0363,-0.0383,-0.0404,-0.0379,-0.0395,-0.0395,-0.0396,-0.0422,-0.0425,-0.0392,-0.0392,-0.0392,-0.0392,0,-0.0094,-0.0092,-0.0087,-0.0093,-0.01,-0.0099,-0.0124,-0.0135,-0.0158,-0.018,-0.0211,-0.026,-0.0296,-0.0312,-0.0337,-0.0355,-0.037,-0.039,-0.0403,-0.0392,-0.042,-0.0424,-0.0388,-0.0389,-0.039,-0.039,0,0,-0.006,-0.0066,-0.0065,-0.0058,-0.0077,-0.0076,-0.0082,-0.0095,-0.0096,-0.0138,-0.0145,-0.02,-0.0231,-0.0253,-0.0292,-0.0319,-0.0345,-0.0349,-0.0352,-0.0369,-0.0412,-0.0411,-0.0415,-0.0368,-0.0368,-0.0369,-0.0429,0,-0.0032,-0.0011,-0.0024,-0.0003,0.0006,-0.0022,-0.0021,-0.0039,-0.0065,-0.0082,-0.0136,-0.0163,-0.0207,-0.0225,-0.0259,-0.0327,-0.0354,-0.0326,-0.0424,-0.0427,-0.0424,-0.0419,-0.0386,-0.0435,-0.0433,-0.0434,-0.0434,0,-0.0,0.001,0.0035,0.0045,0.0047,0.0051,0.0048,0.0042,0.0007,-0.0015,-0.0054,-0.0098,-0.0148,-0.0186,-0.0287,-0.0268,-0.0332,-0.0382,-0.0387,-0.0404,-0.0433,-0.0448,-0.0443,-0.0442,-0.0441,-0.0441,-0.044,0,0.0039,0.0053,0.0077,0.0079,0.0081,0.0088,0.0084,0.0061,0.0069,0.0023,0.0023,-0.0052,-0.0085,-0.0175,-0.028,-0.0287,-0.0388,-0.0415,-0.0472,-0.0473,-0.0472,-0.0471,-0.048,-0.048,-0.048,-0.048,-0.0479,0,0.0076,0.0097,0.0097,0.0112,0.0144,0.0126,0.0149,0.0132,0.0122,0.0145,0.0059,0.0065,-0.0083,-0.0154,-0.026,-0.0374,-0.0377,-0.0462,-0.0487,-0.0454,-0.0451,-0.048,-0.0479,-0.0482,-0.0481,-0.0481,-0.0481,0,0.0117,0.0115,0.0147,0.0157,0.0164,0.0183,0.0203,0.0224,0.0197,0.0224,0.0216,0.0148,0.0056,-0.0087,-0.0235,-0.0338,-0.0455,-0.0493,-0.0439,-0.0456,-0.0523,-0.052,-0.0567,-0.0568,-0.0568,-0.0568,-0.0569,0,0.0139,0.0159,0.0185,0.0211,0.0218,0.0242,0.0268,0.0259,0.0292,0.0291,0.0321,0.024,0.0216,-0.0009,-0.0214,-0.0403,-0.0435,-0.0503,-0.0512,-0.0513,-0.0532,-0.0528,-0.0523,-0.0495,-0.0495,-0.0495,-0.0494,0,0.0186,0.0192,0.0221,0.027,0.0304,0.0347,0.0385,0.043,0.0435,0.0466,0.0507,0.049,0.0278,0.0098,-0.0181,-0.0311,-0.0474,-0.0502,-0.0523,-0.0472,-0.0448,-0.0466,-0.0464,-0.0492,-0.0492,-0.0492,-0.0492,-0.0493,0.0223,0.0252,0.0288,0.0336,0.0382,0.0452,0.05,0.0563,0.0637,0.0698,0.0666,0.0648,0.0417,0.0086,-0.0164,-0.0443,-0.0435,-0.0524,-0.0524,-0.0524,-0.0499,-0.0476,-0.052,-0.0521,-0.0521,-0.0521,-0.0522,0,0.0274,0.0302,0.0353,0.0415,0.048,0.0488,0.0584,0.0647,0.0758,0.0806,0.0842,0.0665,0.0446,0.0169,-0.0231,-0.0467,-0.0495,-0.0542,-0.0519,-0.0519,-0.052,-0.0495,-0.0515,-0.0516,-0.0517,-0.0518,0,0,0.0303,0.0361,0.0384,0.049,0.0536,0.0631,0.0692,0.0795,0.0857,0.0931,0.0926,0.0873,0.0544,0.0267,-0.006,-0.0292,-0.0357,-0.0341,-0.0318,-0.0253,-0.0251,-0.048,-0.0436,0,0,0,0,0]}],[{"header":{"parameterUnit":"m.s-1","parameterCategory":2,"la1":30.2991,"la2":30.254,"lo1":-89.0895,"lo2":-89.0444,"dy":0.0017,"dx":0.0017,"nx":28,"ny":28,"refTime":"2023-11-12T03:00:00:Z","depth":"4","parameterNumber":2,"parameterNumberName":"U-component_of_CURRENTS"},"data":[0,0,0,0,0,0,0,0,0,0,0,0,0,0,0,0,0,0,0,0,0,0,0,0,0,0,0,0,0,0,0,0,0,0,0,0,0,0,0,0,0,0,0,0,0,0,0,0,0,0,0,0,0,0,0,0,0,0,0.1259,0.126,0,0.1315,0.1315,0.1316,0.1363,0.1364,0.1364,0.1365,0.1419,0.142,0.142,0,0,0,0,0,0,0,0,0,0,0,0,0,0.1175,0.1177,0.1259,0.126,0.1261,0.1314,0.1315,0.1316,0.1363,0.1364,0.1364,0.1365,0.1419,0.142,0.142,0,0,0,0,0,0,0,0,0,0,0,0,0,0.1217,0.1177,0.1259,0.1292,0.1296,0.1314,0.1315,0.1316,0.1363,0.1364,0.1365,0.1366,0.1418,0.1419,0.1421,0.1407,0,0,0.1424,0.1425,0,0,0,0,0,0,0,0,0.1215,0.122,0.1286,0.129,0.1294,0.1335,0.1306,0.1347,0.1362,0.1335,0.1365,0.1366,0.1391,0.1395,0.14,0.1409,0.1411,0.1424,0.1425,0.1425,0.1426,0,0,0,0,0,0,0,0.1212,0.1218,0.1279,0.1287,0.1292,0.1298,0.1305,0.1313,0.1355,0.1338,0.1342,0.1351,0.1393,0.1399,0.1401,0.1412,0.1424,0.1425,0.1426,0.1426,0.15,0.1502,0,0,0,0,0,0,0.1209,0.1215,0.1277,0.1281,0.1259,0.1299,0.1307,0.1319,0.1355,0.1362,0.135,0.1353,0.1396,0.14,0.1404,0.147,0.1425,0.1427,0.1427,0.1499,0.1501,0.1502,0,0,0,0,0,0,0.1207,0.1214,0.1275,0.1251,0.1259,0.13,0.1313,0.1319,0.1354,0.1365,0.1372,0.1381,0.1397,0.1402,0.144,0.147,0.1427,0.1428,0.1498,0.15,0.1501,0.1552,0,0,0,0,0,0,0.1205,0.1213,0.1233,0.1251,0.1261,0.1305,0.1312,0.132,0.1357,0.1363,0.1393,0.1397,0.1398,0.1438,0.1441,0.1471,0.1429,0.1496,0.1499,0.1501,0.1549,0.1555,0.1561,0,0,0,0,0,0.1201,0.122,0.1233,0.1242,0.1282,0.1306,0.1312,0.1342,0.1358,0.1376,0.1402,0.1398,0.1455,0.144,0.1443,0.1474,0.1495,0.1498,0.1501,0.1546,0.1554,0.1561,0,0,0,0,0,0,0.1196,0.1227,0.1242,0.1271,0.1296,0.1315,0.134,0.1356,0.139,0.1405,0.1412,0.1418,0.1463,0.146,0.1443,0.1502,0.1475,0.1479,0.1509,0.1516,0.1522,0.1523,0.143,0,0,0,0,0,0.1202,0.1228,0.1252,0.128,0.1295,0.1321,0.134,0.1361,0.1387,0.1404,0.1425,0.1449,0.1471,0.1488,0.1504,0.1534,0.1535,0.1556,0.1562,0.1568,0.1571,0.1598,0.1607,0.1511,0.1511,0.1511,0,0,0.1208,0.123,0.1246,0.1281,0.1305,0.1328,0.1336,0.1374,0.14,0.1403,0.1454,0.1472,0.1484,0.1522,0.1541,0.1528,0.1598,0.1571,0.1576,0.1576,0.1602,0.1611,0.1619,0.1513,0.1513,0.1513,0,0,0.1221,0.1253,0.1275,0.1297,0.1339,0.1354,0.137,0.1405,0.1433,0.1474,0.1487,0.1524,0.1556,0.1572,0.1582,0.163,0.1629,0.1642,0.1676,0.1703,0.1711,0.1718,0.174,0.1748,0.1646,0.1646,0.1646,0,0.1229,0.1259,0.1285,0.131,0.1334,0.1367,0.1392,0.142,0.1465,0.149,0.15,0.1564,0.1577,0.162,0.1644,0.1644,0.166,0.1646,0.1711,0.1717,0.1724,0.1745,0.1753,0.1649,0.1648,0.1648,0.1648,0,0.1248,0.1282,0.1299,0.1341,0.1367,0.1399,0.1434,0.1474,0.1511,0.1536,0.1597,0.162,0.1658,0.1672,0.1676,0.1732,0.173,0.1714,0.169,0.1736,0.1755,0.1764,0.1653,0.1652,0.1651,0.165,0,0,0.1235,0.13,0.1309,0.1334,0.139,0.1409,0.1462,0.151,0.1549,0.1599,0.1647,0.1696,0.1719,0.1732,0.1746,0.1774,0.1837,0.1773,0.1774,0.1793,0.1905,0.1812,0.1812,0.1841,0.1842,0.1844,0.1904,0,0.1246,0.1292,0.1324,0.1373,0.1398,0.1447,0.1488,0.1539,0.1587,0.1642,0.1683,0.1735,0.1738,0.1772,0.1801,0.183,0.1861,0.1823,0.186,0.1861,0.177,0.1819,0.1849,0.191,0.1911,0.1913,0.1914,0,0.1247,0.1281,0.1328,0.1392,0.1408,0.1445,0.152,0.1562,0.164,0.1681,0.174,0.1775,0.1841,0.183,0.1904,0.1885,0.1905,0.1918,0.192,0.1818,0.1782,0.1853,0.1928,0.1927,0.1926,0.1925,0.1924,0,0.1212,0.1281,0.132,0.1342,0.1417,0.1457,0.1505,0.158,0.1623,0.1715,0.1762,0.1829,0.1882,0.1917,0.1961,0.1945,0.2028,0.2,0.1932,0.1926,0.1968,0.196,0.2046,0.2046,0.2046,0.2046,0.2046,0,0.1195,0.123,0.1314,0.1334,0.1388,0.1447,0.1511,0.1569,0.1653,0.1703,0.1786,0.1833,0.1911,0.1967,0.1985,0.1989,0.2051,0.1946,0.1937,0.1989,0.1983,0.1974,0.1965,0.2048,0.2048,0.2047,0.2047,0,0.1145,0.1202,0.1251,0.1341,0.1373,0.1412,0.1513,0.1554,0.1648,0.1718,0.1756,0.1863,0.1936,0.1997,0.2059,0.2013,0.2026,0.201,0.2078,0.2069,0.1898,0.1891,0.193,0.1927,0.1925,0.1923,0.1921,0,0.112,0.1142,0.1243,0.1276,0.1323,0.1394,0.1439,0.154,0.158,0.1718,0.1741,0.1858,0.1918,0.1928,0.1999,0.2028,0.2007,0.1995,0.193,0.19,0.1888,0.1884,0.1881,0.1918,0.1917,0.1916,0.1916,0,0.1071,0.1119,0.1161,0.1229,0.1287,0.1337,0.1411,0.1429,0.1539,0.1643,0.1688,0.1735,0.1816,0.1862,0.1908,0.192,0.1989,0.197,0.1974,0.1912,0.1886,0.1875,0.1874,0.1908,0.1909,0.191,0.191,0,0.1037,0.1053,0.1117,0.1167,0.1233,0.1257,0.1306,0.1354,0.1406,0.1548,0.156,0.1686,0.1789,0.1809,0.1848,0.1861,0.183,0.176,0.1774,0.1784,0.1711,0.1654,0.1604,0,0,0,0,0,0.0993,0.1006,0.1049,0.1095,0.1154,0.1195,0.1275,0.1324,0.1428,0.1421,0.1484,0.1551,0.1615,0.1681,0.1668,0.18,0.1844,0.1778,0.1771,0.1863,0.1872,0.1801,0,0,0,0,0,0,0.0964,0.1003,0.1021,0.1022,0.1041,0.1095,0.1143,0.1217,0.1214,0.1328,0.137,0.1466,0.1552,0.161,0.1641,0.1663,0.163,0.1859,0.1856,0.1858,0.1866,0.1874,0.1804,0,0,0,0,0]},{"header":{"parameterUnit":"m.s-1","parameterCategory":2,"la1":30.2991,"la2":30.254,"lo1":-89.0895,"lo2":-89.0444,"dy":0.0017,"dx":0.0017,"nx":28,"ny":28,"refTime":"2023-11-12T03:00:00:Z","depth":"4","parameterNumber":3,"parameterNumberName":"V-component_of_CURRENTS"},"data":[0,0,0,0,0,0,0,0,0,0,0,0,0,0,0,0,0,0,0,0,0,0,0,0,0,0,0,0,0,0,0,0,0,0,0,0,0,0,0,0,0,0,0,0,0,0,0,0,0,0,0,0,0,0,0,0,0,0,0.0047,0.0046,0,0.0008,0.0008,0.0007,-0.0021,-0.0021,-0.0021,-0.0022,-0.0073,-0.0074,-0.0075,0,0,0,0,0,0,0,0,0,0,0,0,0,0.0084,0.0084,0.0047,0.0046,0.0046,0.0008,0.0008,0.0007,-0.0021,-0.0021,-0.0021,-0.0022,-0.0072,-0.0074,-0.0075,0,0,0,0,0,0,0,0,0,0,0,0,0,0.0059,0.0084,0.0047,0.0027,0.0025,0.0008,0.0008,0.0007,-0.0021,-0.0021,-0.0021,-0.0022,-0.0072,-0.0074,-0.0075,-0.0078,0,0,-0.0081,-0.0081,0,0,0,0,0,0,0,0,0.0061,0.0058,0.0031,0.0029,0.0026,-0.0002,0.0002,-0.0022,-0.0021,-0.0003,-0.0022,-0.0022,-0.005,-0.0054,-0.006,-0.0081,-0.0083,-0.0081,-0.0082,-0.0082,-0.0083,0,0,0,0,0,0,0,0.0062,0.0059,0.0032,0.003,0.0027,0.0016,0.0012,-0.0003,-0.0024,-0.0005,-0.0007,-0.0011,-0.0051,-0.0058,-0.0061,-0.0084,-0.0081,-0.0082,-0.0083,-0.0084,-0.0118,-0.0118,0,0,0,0,0,0,0.0068,0.0061,0.0033,0.003,0.0043,0.0016,0.0011,0.0008,-0.0024,-0.0029,-0.0011,-0.0012,-0.0055,-0.0059,-0.0063,-0.007,-0.0082,-0.0084,-0.0085,-0.0118,-0.0118,-0.0118,0,0,0,0,0,0,0.0069,0.0066,0.0034,0.0045,0.004,0.0016,0.0011,0.0007,-0.0003,-0.0028,-0.0034,-0.0016,-0.0055,-0.0061,-0.0076,-0.0072,-0.0085,-0.0086,-0.0119,-0.0118,-0.0118,-0.0083,0,0,0,0,0,0,0.007,0.0066,0.0066,0.0045,0.004,0.0027,0.0012,0.0006,-0.0005,-0.0007,-0.0035,-0.004,-0.0056,-0.0073,-0.0078,-0.0075,-0.0088,-0.0119,-0.0118,-0.0118,-0.0084,-0.0082,-0.0079,0,0,0,0,0,0.0072,0.0074,0.0066,0.0063,0.0039,0.0027,0.0024,0.0005,-0.0004,-0.0006,-0.0025,-0.0039,-0.0075,-0.0074,-0.008,-0.0077,-0.0119,-0.0119,-0.0118,-0.0085,-0.0082,-0.0079,0,0,0,0,0,0,0.009,0.007,0.0062,0.0058,0.0044,0.0023,0.002,0.0006,-0.001,-0.0012,-0.0038,-0.0044,-0.0057,-0.0071,-0.007,-0.0087,-0.0099,-0.01,-0.0073,-0.007,-0.0067,-0.0054,-0.0089,0,0,0,0,0,0.0094,0.0091,0.007,0.0068,0.0062,0.0041,0.0034,0.0022,0.0005,-0.0003,-0.0023,-0.0043,-0.006,-0.0068,-0.0086,-0.0092,-0.0112,-0.0095,-0.0092,-0.009,-0.0083,-0.0114,-0.0114,-0.0117,-0.0117,-0.0117,0,0,0.01,0.009,0.0087,0.0072,0.006,0.006,0.0036,0.0028,0.0028,-0.0006,-0.0013,-0.0037,-0.0061,-0.007,-0.0077,-0.0081,-0.0099,-0.009,-0.0088,-0.0081,-0.0114,-0.0113,-0.0113,-0.0117,-0.0117,-0.0117,0,0,0.0117,0.0103,0.0107,0.0099,0.0084,0.0073,0.0071,0.005,0.0041,0.003,0.0005,-0.0016,-0.004,-0.0056,-0.0066,-0.0061,-0.0087,-0.0067,-0.0041,-0.0072,-0.0071,-0.0072,-0.0093,-0.0095,-0.0063,-0.0063,-0.0063,0,0.0126,0.0128,0.0107,0.011,0.011,0.0082,0.0091,0.0078,0.0054,0.0051,0.0033,-0.0007,-0.0032,-0.004,-0.004,-0.0055,-0.0074,-0.0049,-0.0068,-0.0069,-0.0069,-0.0091,-0.0094,-0.0061,-0.0061,-0.0062,-0.0062,0,0.0145,0.0147,0.015,0.0147,0.0144,0.0145,0.0129,0.0122,0.0105,0.009,0.0072,0.0033,0.0012,-0.0003,-0.002,-0.0034,-0.0046,-0.0064,-0.0074,-0.0067,-0.009,-0.0094,-0.0059,-0.0059,-0.006,-0.006,0,0,0.0164,0.0164,0.0165,0.0177,0.0164,0.0168,0.0169,0.0165,0.0172,0.0135,0.0138,0.0095,0.0069,0.0055,0.0024,-0.0004,-0.0031,-0.0032,-0.0034,-0.0049,-0.0092,-0.0102,-0.0107,-0.0054,-0.0054,-0.0055,-0.0106,0,0.0187,0.0208,0.02,0.0225,0.0237,0.0219,0.0228,0.0221,0.0204,0.0198,0.0152,0.0138,0.0094,0.0083,0.0047,-0.0008,-0.004,-0.0015,-0.01,-0.0102,-0.0109,-0.0111,-0.0056,-0.0109,-0.011,-0.011,-0.0111,0,0.0209,0.0222,0.025,0.0274,0.0278,0.0288,0.0303,0.0305,0.0285,0.0271,0.0241,0.0207,0.0165,0.0122,0.0031,0.0049,-0.0017,-0.0067,-0.007,-0.0092,-0.0118,-0.0119,-0.0118,-0.0117,-0.0117,-0.0116,-0.0116,0,0.0239,0.026,0.0288,0.0293,0.0309,0.0324,0.0332,0.0326,0.0341,0.0315,0.0318,0.0259,0.0233,0.0145,0.0043,0.0036,-0.006,-0.0085,-0.0156,-0.0157,-0.0149,-0.0148,-0.0156,-0.0156,-0.0156,-0.0156,-0.0156,0,0.0266,0.029,0.0305,0.0321,0.0362,0.036,0.0396,0.0392,0.0397,0.0417,0.0357,0.0353,0.0235,0.0169,0.0066,-0.005,-0.0046,-0.0149,-0.0172,-0.0132,-0.0129,-0.0152,-0.015,-0.0158,-0.0157,-0.0157,-0.0156,0,0.0291,0.0299,0.0335,0.0363,0.0376,0.0403,0.0443,0.0468,0.0463,0.0486,0.0482,0.0427,0.0333,0.0217,0.0076,-0.0014,-0.0128,-0.0174,-0.0109,-0.0128,-0.021,-0.0206,-0.0255,-0.0255,-0.0256,-0.0257,-0.0257,0,0.0304,0.0323,0.0366,0.0393,0.0407,0.0446,0.0477,0.0494,0.0522,0.0528,0.0542,0.0473,0.0415,0.0224,0.0085,-0.0103,-0.0141,-0.02,-0.0221,-0.0203,-0.0221,-0.0216,-0.0212,-0.0258,-0.0258,-0.0258,-0.0259,0,0.0331,0.0343,0.0374,0.0425,0.0465,0.0514,0.0557,0.0587,0.0605,0.0609,0.059,0.0492,0.0387,0.0228,0.0085,-0.0056,-0.016,-0.0207,-0.0207,-0.0228,-0.0208,-0.0224,-0.0218,-0.0261,-0.026,-0.026,-0.026,0,0.0349,0.0373,0.041,0.0455,0.051,0.0562,0.0585,0.0615,0.0643,0.0647,0.0637,0.0521,0.0454,0.0252,0.0119,-0.0015,-0.0064,-0.012,-0.0126,-0.0125,-0.008,-0.0036,-0.0052,0,0,0,0,0,0.0363,0.0391,0.0437,0.0488,0.0542,0.0574,0.0633,0.065,0.0671,0.0666,0.0655,0.0554,0.0357,0.0274,0.0137,0.009,-0.0094,-0.0077,-0.0163,-0.0273,-0.0271,-0.0242,0,0,0,0,0,0,0.0374,0.0418,0.0438,0.0505,0.0542,0.0607,0.0646,0.0663,0.0658,0.0658,0.056,0.0508,0.0322,0.0438,0.0132,0.0091,0.0014,-0.0167,-0.0171,-0.0275,-0.0272,-0.027,-0.024,0,0,0,0,0]}]]